When you browse on this site, cookies collect data to enhance your experience and personalize the content and advertising you see.
Visit our Privacy Policy to learn more. By continuing to use the site, you agree to this use of cookies and data.
  • în România
  • Lista ţărilor
  • Pe 7 zile
  • Temperatura apei
  • Hartă satelitară
  • Meteo pe hartă
  • Widget-uri
  • user-avatar
    Intrare

    Meteo pe oră la Saint-Gratien

    Astăzi, 20 Iunie, Joi

    Timp Temperatura Precipitaţii Vânt Presiune Umiditate
    00:00 +18°C° 0 mm 1 m/s 755 mmHg 80%
    01:00 +18°C° 0 mm 1 m/s 755 mmHg 81%
    02:00 +16°C° 0 mm 1 m/s 754 mmHg 82%
    03:00 +16°C° 0 mm 1 m/s 754 mmHg 84%
    04:00 +16°C° 0 mm 2 m/s 755 mmHg 84%
    05:00 +16°C° 0 mm 2 m/s 755 mmHg 84%
    06:00 +16°C° 0 mm 3 m/s 755 mmHg 87%
    07:00 +17°C° 0.1 mm 3 m/s 756 mmHg 85%
    08:00 +17°C° 0.1 mm 3 m/s 756 mmHg 83%
    09:00 +17°C° 0.1 mm 3 m/s 756 mmHg 82%
    10:00 +18°C° 0 mm 3 m/s 757 mmHg 72%
    11:00 +20°C° 0 mm 4 m/s 757 mmHg 63%
    12:00 +21°C° 0 mm 4 m/s 757 mmHg 53%
    13:00 +21°C° 0 mm 4 m/s 757 mmHg 52%
    14:00 +22°C° 0 mm 4 m/s 757 mmHg 50%
    15:00 +22°C° 0 mm 4 m/s 757 mmHg 49%
    16:00 +21°C° 0 mm 4 m/s 757 mmHg 51%
    17:00 +21°C° 0 mm 3 m/s 757 mmHg 53%
    18:00 +20°C° 0 mm 3 m/s 758 mmHg 56%
    19:00 +19°C° 0 mm 3 m/s 758 mmHg 61%
    20:00 +18°C° 0 mm 2 m/s 758 mmHg 66%
    21:00 +16°C° 0 mm 2 m/s 759 mmHg 71%
    22:00 +16°C° 0 mm 2 m/s 759 mmHg 73%
    23:00 +15°C° 0 mm 1 m/s 759 mmHg 75%

    Mâine, 21 Iunie, Vineri

    Timp Temperatura Precipitaţii Vânt Presiune Umiditate
    00:00 +14°C° 0 mm 1 m/s 760 mmHg 77%
    01:00 +14°C° 0 mm 1 m/s 760 mmHg 78%
    02:00 +14°C° 0 mm 1 m/s 760 mmHg 79%
    03:00 +13°C° 0 mm 1 m/s 760 mmHg 80%
    04:00 +14°C° 0 mm 1 m/s 760 mmHg 78%
    05:00 +14°C° 0 mm 1 m/s 760 mmHg 76%
    06:00 +15°C° 0 mm 1 m/s 760 mmHg 74%
    07:00 +16°C° 0 mm 1 m/s 761 mmHg 67%
    08:00 +19°C° 0 mm 1 m/s 761 mmHg 59%
    09:00 +19°C° 0 mm 2 m/s 761 mmHg 51%
    10:00 +20°C° 0 mm 2 m/s 761 mmHg 49%
    11:00 +21°C° 0 mm 2 m/s 761 mmHg 46%
    12:00 +23°C° 0 mm 2 m/s 761 mmHg 43%
    13:00 +22°C° 0 mm 3 m/s 761 mmHg 45%
    14:00 +22°C° 0 mm 3 m/s 761 mmHg 47%
    15:00 +22°C° 0 mm 4 m/s 761 mmHg 49%
    16:00 +21°C° 0 mm 4 m/s 761 mmHg 52%
    17:00 +20°C° 0 mm 4 m/s 761 mmHg 56%
    18:00 +20°C° 0 mm 4 m/s 761 mmHg 60%
    19:00 +18°C° 0 mm 4 m/s 761 mmHg 64%
    20:00 +17°C° 0 mm 3 m/s 761 mmHg 68%
    21:00 +16°C° 0 mm 3 m/s 761 mmHg 72%
    22:00 +14°C° 0 mm 3 m/s 761 mmHg 73%
    23:00 +13°C° 0 mm 3 m/s 761 mmHg 73%

    Poimâine, 22 Iunie, Sâmbătă

    Timp Temperatura Precipitaţii Vânt Presiune Umiditate
    00:00 +13°C° 0 mm 2 m/s 761 mmHg 73%
    01:00 +13°C° 0 mm 2 m/s 761 mmHg 75%
    02:00 +13°C° 0 mm 2 m/s 761 mmHg 77%
    03:00 +12°C° 0 mm 2 m/s 761 mmHg 79%
    04:00 +13°C° 0 mm 2 m/s 761 mmHg 77%
    05:00 +12°C° 0 mm 3 m/s 761 mmHg 75%
    06:00 +13°C° 0 mm 3 m/s 760 mmHg 73%
    07:00 +16°C° 0 mm 3 m/s 760 mmHg 68%
    08:00 +18°C° 0 mm 3 m/s 760 mmHg 64%
    09:00 +20°C° 0 mm 3 m/s 760 mmHg 59%
    10:00 +21°C° 0 mm 3 m/s 760 mmHg 55%
    11:00 +24°C° 0 mm 3 m/s 760 mmHg 51%
    12:00 +25°C° 0 mm 3 m/s 759 mmHg 47%
    13:00 +25°C° 0 mm 3 m/s 759 mmHg 48%
    14:00 +26°C° 0 mm 3 m/s 759 mmHg 49%
    15:00 +26°C° 0 mm 3 m/s 758 mmHg 49%
    16:00 +26°C° 0 mm 3 m/s 758 mmHg 53%
    17:00 +25°C° 0 mm 3 m/s 758 mmHg 57%
    18:00 +25°C° 0 mm 3 m/s 758 mmHg 61%
    19:00 +24°C° 0 mm 2 m/s 758 mmHg 66%
    20:00 +23°C° 0 mm 2 m/s 758 mmHg 70%
    21:00 +20°C° 0 mm 2 m/s 758 mmHg 75%
    22:00 +20°C° 0 mm 2 m/s 758 mmHg 78%
    23:00 +19°C° 0 mm 2 m/s 758 mmHg 80%

    23 Iunie, Duminică

    Timp Temperatura Precipitaţii Vânt Presiune Umiditate
    00:00 +19°C° 0 mm 2 m/s 758 mmHg 82%
    01:00 +18°C° 0 mm 2 m/s 758 mmHg 83%
    02:00 +18°C° 0 mm 2 m/s 758 mmHg 85%
    03:00 +18°C° 0 mm 2 m/s 757 mmHg 86%
    04:00 +18°C° 0 mm 2 m/s 757 mmHg 85%
    05:00 +19°C° 0 mm 2 m/s 757 mmHg 84%
    06:00 +19°C° 0 mm 2 m/s 758 mmHg 83%
    07:00 +21°C° 0 mm 3 m/s 758 mmHg 77%
    08:00 +22°C° 0 mm 3 m/s 758 mmHg 71%
    09:00 +25°C° 0 mm 3 m/s 758 mmHg 65%
    10:00 +26°C° 0 mm 4 m/s 758 mmHg 61%
    11:00 +27°C° 0 mm 4 m/s 757 mmHg 56%
    12:00 +28°C° 0 mm 4 m/s 757 mmHg 52%
    13:00 +28°C° 0 mm 4 m/s 757 mmHg 53%
    14:00 +29°C° 0 mm 4 m/s 757 mmHg 54%
    15:00 +29°C° 0 mm 4 m/s 756 mmHg 55%
    16:00 +28°C° 0 mm 4 m/s 756 mmHg 58%
    17:00 +28°C° 0 mm 4 m/s 756 mmHg 61%
    18:00 +28°C° 0 mm 3 m/s 756 mmHg 64%
    19:00 +26°C° 0 mm 3 m/s 756 mmHg 69%
    20:00 +25°C° 0 mm 3 m/s 757 mmHg 74%
    21:00 +24°C° 0 mm 3 m/s 757 mmHg 79%
    22:00 +24°C° 0 mm 3 m/s 757 mmHg 81%
    23:00 +22°C° 0 mm 3 m/s 757 mmHg 82%

    24 Iunie, Luni

    Timp Temperatura Precipitaţii Vânt Presiune Umiditate
    00:00 +22°C° 0 mm 3 m/s 757 mmHg 84%
    01:00 +21°C° 0 mm 2 m/s 757 mmHg 84%
    02:00 +21°C° 0 mm 2 m/s 757 mmHg 85%
    03:00 +20°C° 0 mm 2 m/s 757 mmHg 85%
    04:00 +22°C° 0 mm 1 m/s 757 mmHg 82%
    05:00 +23°C° 0 mm 1 m/s 757 mmHg 79%
    06:00 +23°C° 0 mm 1 m/s 758 mmHg 76%
    07:00 +25°C° 0.1 mm 1 m/s 758 mmHg 69%
    08:00 +27°C° 0.1 mm 1 m/s 758 mmHg 62%
    09:00 +29°C° 0.1 mm 1 m/s 758 mmHg 55%
    10:00 +30°C° 0 mm 2 m/s 758 mmHg 51%
    11:00 +31°C° 0 mm 3 m/s 758 mmHg 48%
    12:00 +34°C° 0 mm 3 m/s 758 mmHg 44%
    13:00 +34°C° 0 mm 3 m/s 758 mmHg 45%
    14:00 +34°C° 0 mm 4 m/s 758 mmHg 46%
    15:00 +34°C° 0 mm 4 m/s 758 mmHg 47%
    16:00 +33°C° 0 mm 4 m/s 758 mmHg 51%
    17:00 +33°C° 0 mm 3 m/s 758 mmHg 56%
    18:00 +31°C° 0 mm 3 m/s 758 mmHg 60%
    19:00 +30°C° 0 mm 3 m/s 758 mmHg 66%
    20:00 +28°C° 0 mm 3 m/s 758 mmHg 72%
    21:00 +27°C° 0 mm 3 m/s 758 mmHg 79%
    22:00 +27°C° 0 mm 3 m/s 758 mmHg 79%
    23:00 +26°C° 0 mm 3 m/s 758 mmHg 80%

    25 Iunie, Marţi

    Timp Temperatura Precipitaţii Vânt Presiune Umiditate
    00:00 +25°C° 0 mm 3 m/s 758 mmHg 80%
    01:00 +25°C° 0 mm 3 m/s 757 mmHg 81%
    02:00 +24°C° 0 mm 2 m/s 757 mmHg 81%
    03:00 +24°C° 0 mm 2 m/s 757 mmHg 81%
    04:00 +24°C° 0 mm 3 m/s 757 mmHg 78%
    05:00 +25°C° 0 mm 3 m/s 757 mmHg 75%
    06:00 +25°C° 0 mm 3 m/s 757 mmHg 73%
    07:00 +27°C° 0 mm 3 m/s 757 mmHg 67%
    08:00 +28°C° 0 mm 3 m/s 757 mmHg 62%
    09:00 +30°C° 0 mm 3 m/s 757 mmHg 57%
    10:00 +31°C° 0 mm 3 m/s 757 mmHg 52%
    11:00 +34°C° 0 mm 3 m/s 758 mmHg 48%
    12:00 +35°C° 0 mm 3 m/s 758 mmHg 43%
    13:00 +36°C° 0 mm 3 m/s 758 mmHg 42%
    14:00 +36°C° 0 mm 3 m/s 758 mmHg 40%
    15:00 +36°C° 0 mm 3 m/s 758 mmHg 39%
    16:00 +36°C° 0 mm 3 m/s 758 mmHg 42%
    17:00 +35°C° 0 mm 2 m/s 758 mmHg 45%
    18:00 +34°C° 0 mm 2 m/s 759 mmHg 48%
    19:00 +32°C° 0 mm 2 m/s 759 mmHg 53%
    20:00 +30°C° 0 mm 1 m/s 759 mmHg 58%
    21:00 +28°C° 0 mm 1 m/s 760 mmHg 63%
    22:00 +27°C° 0 mm 1 m/s 760 mmHg 65%
    23:00 +27°C° 0 mm 1 m/s 760 mmHg 68%
    Arată mai mult